User: anonymous   Login
Location: Cahas Mountain Overlook
(37.0833°N, 80.1000°W)
Time: 14:42:49
(UTC-05:00)
Language:

SR - Orbit

View from above orbital plane
View from above orbital plane
View from above satellite
View from above satellite

Ground track
Ground track

The orbit data is extracted from the following two-line orbital elements,

1 00046U 60007B   22024.93449438  .00000141  00000-0  51287-4 0  9990
2 00046  66.6895 261.6203 0203962  52.6413 309.3078 14.49510487224107
Epoch (UTC): 24 January 2022 22:25:40
Eccentricity: 0.0203962
inclination: 66.6895°
perigee height: 582 km
apogee height: 872 km
right ascension of ascending node: 261.6203°
argument of perigee: 52.6413°
revolutions per day: 14.49510487
mean anomaly at epoch: 309.3078°
orbit number at epoch: 22410

The dashed part of the orbit path shows where the satellite is in the earth's shadow,  

DLR